Year,Month,Day,Hour,Minute,Value (Times are PST for temperature in C)
2018,10,19,00,00,-4.80
2018,10,19,00,01,-4.80
2018,10,19,00,02,-4.80
2018,10,19,00,03,-4.70
2018,10,19,00,04,-4.70
2018,10,19,00,05,-4.60
2018,10,19,00,06,-4.60
2018,10,19,00,07,-4.60
2018,10,19,00,08,-4.60
2018,10,19,00,09,-4.60
2018,10,19,00,10,-4.60
2018,10,19,00,11,-4.60
2018,10,19,00,12,-4.60
2018,10,19,00,13,-4.60
2018,10,19,00,14,-4.50
2018,10,19,00,15,-4.50
2018,10,19,00,16,-4.50
2018,10,19,00,17,-4.50
2018,10,19,00,18,-4.50
2018,10,19,00,19,-4.40
2018,10,19,00,20,-4.40
2018,10,19,00,21,-4.40
2018,10,19,00,22,-4.40
2018,10,19,00,23,-4.40
2018,10,19,00,24,-4.40
2018,10,19,00,25,-4.40
2018,10,19,00,26,-4.40
2018,10,19,00,27,-4.40
2018,10,19,00,28,-4.40
2018,10,19,00,29,-4.40
2018,10,19,00,30,-4.40
2018,10,19,00,31,-4.40
2018,10,19,00,32,-4.40
2018,10,19,00,33,-4.50
2018,10,19,00,34,-4.50
2018,10,19,00,35,-4.50
2018,10,19,00,36,-4.50
2018,10,19,00,37,-4.50
2018,10,19,00,38,-4.50
2018,10,19,00,39,-4.60
2018,10,19,00,40,-4.60
2018,10,19,00,41,-4.60
2018,10,19,00,42,-4.60
2018,10,19,00,43,-4.60
2018,10,19,00,44,-4.60
2018,10,19,00,45,-4.60
2018,10,19,00,46,-4.60
2018,10,19,00,47,-4.60
2018,10,19,00,48,-4.60
2018,10,19,00,49,-4.60
2018,10,19,00,50,-4.60
2018,10,19,00,51,-4.60
2018,10,19,00,52,-4.60
2018,10,19,00,53,-4.60
2018,10,19,00,54,-4.60
2018,10,19,00,55,-4.60
2018,10,19,00,56,-4.70
2018,10,19,00,57,-4.70
2018,10,19,00,58,-4.70
2018,10,19,00,59,-4.70
2018,10,19,01,00,-4.70
2018,10,19,01,01,-4.70
2018,10,19,01,02,-4.60
2018,10,19,01,03,-4.60
2018,10,19,01,04,-4.50
2018,10,19,01,05,-4.50
2018,10,19,01,06,-4.40
2018,10,19,01,07,-4.40
2018,10,19,01,08,-4.40
2018,10,19,01,09,-4.40
2018,10,19,01,10,-4.40
2018,10,19,01,11,-4.40
2018,10,19,01,12,-4.40
2018,10,19,01,13,-4.40
2018,10,19,01,14,-4.40
2018,10,19,01,15,-4.40
2018,10,19,01,16,-4.40
2018,10,19,01,17,-4.50
2018,10,19,01,18,-4.50
2018,10,19,01,19,-4.50
2018,10,19,01,20,-4.50
2018,10,19,01,21,-4.60
2018,10,19,01,22,-4.60
2018,10,19,01,23,-4.60
2018,10,19,01,24,-4.60
2018,10,19,01,25,-4.60
2018,10,19,01,26,-4.60
2018,10,19,01,27,-4.60
2018,10,19,01,28,-4.60
2018,10,19,01,29,-4.60
2018,10,19,01,30,-4.60
2018,10,19,01,31,-4.60
2018,10,19,01,32,-4.60
2018,10,19,01,33,-4.60
2018,10,19,01,34,-4.60
2018,10,19,01,35,-4.60
2018,10,19,01,36,-4.60
2018,10,19,01,37,-4.60
2018,10,19,01,38,-4.60
2018,10,19,01,39,-4.60
2018,10,19,01,40,-4.60
2018,10,19,01,41,-4.60
2018,10,19,01,42,-4.60
2018,10,19,01,43,-4.60
2018,10,19,01,44,-4.60
2018,10,19,01,45,-4.70
2018,10,19,01,46,-4.70
2018,10,19,01,47,-4.70
2018,10,19,01,48,-4.70
2018,10,19,01,49,-4.70
2018,10,19,01,50,-4.70
2018,10,19,01,51,-4.70
2018,10,19,01,52,-4.70
2018,10,19,01,53,-4.70
2018,10,19,01,54,-4.70
2018,10,19,01,55,-4.70
2018,10,19,01,56,-4.70
2018,10,19,01,57,-4.70
2018,10,19,01,58,-4.70
2018,10,19,01,59,-4.70
2018,10,19,02,00,-4.70
2018,10,19,02,01,-4.70
2018,10,19,02,02,-4.70
2018,10,19,02,03,-4.70
2018,10,19,02,04,-4.60
2018,10,19,02,05,-4.60
2018,10,19,02,06,-4.60
2018,10,19,02,07,-4.60
2018,10,19,02,08,-4.60
2018,10,19,02,09,-4.50
2018,10,19,02,10,-4.50
2018,10,19,02,11,-4.50
2018,10,19,02,12,-4.50
2018,10,19,02,13,-4.50
2018,10,19,02,14,-4.50
2018,10,19,02,15,-4.50
2018,10,19,02,16,-4.50
2018,10,19,02,17,-4.50
2018,10,19,02,18,-4.50
2018,10,19,02,19,-4.50
2018,10,19,02,20,-4.50
2018,10,19,02,21,-4.50
2018,10,19,02,22,-4.40
2018,10,19,02,23,-4.40
2018,10,19,02,24,-4.40
2018,10,19,02,25,-4.40
2018,10,19,02,26,-4.40
2018,10,19,02,27,-4.30
2018,10,19,02,28,-4.30
2018,10,19,02,29,-4.20
2018,10,19,02,30,-4.20
2018,10,19,02,31,-4.10
2018,10,19,02,32,-4.10
2018,10,19,02,33,-4.00
2018,10,19,02,34,-4.00
2018,10,19,02,35,-4.00
2018,10,19,02,36,-3.90
2018,10,19,02,37,-3.90
2018,10,19,02,38,-3.90
2018,10,19,02,39,-3.90
2018,10,19,02,40,-3.90
2018,10,19,02,41,-3.90
2018,10,19,02,42,-3.90
2018,10,19,02,43,-3.90
2018,10,19,02,44,-3.90
2018,10,19,02,45,-3.90
2018,10,19,02,46,-3.90
2018,10,19,02,47,-3.90
2018,10,19,02,48,-3.90
2018,10,19,02,49,-3.90
2018,10,19,02,50,-3.90
2018,10,19,02,51,-3.90
2018,10,19,02,52,-3.90
2018,10,19,02,53,-3.90
2018,10,19,02,54,-3.90
2018,10,19,02,55,-3.90
2018,10,19,02,56,-3.90
2018,10,19,02,57,-3.90
2018,10,19,02,58,-3.90
2018,10,19,02,59,-3.90
2018,10,19,03,00,-3.90
2018,10,19,03,01,-3.80
2018,10,19,03,02,-3.80
2018,10,19,03,03,-3.80
2018,10,19,03,04,-3.80
2018,10,19,03,05,-3.80
2018,10,19,03,06,-3.80
2018,10,19,03,07,-3.70
2018,10,19,03,08,-3.80
2018,10,19,03,09,-3.70
2018,10,19,03,10,-3.70
2018,10,19,03,11,-3.70
2018,10,19,03,12,-3.70
2018,10,19,03,13,-3.70
2018,10,19,03,14,-3.70
2018,10,19,03,15,-3.70
2018,10,19,03,16,-3.70
2018,10,19,03,17,-3.70
2018,10,19,03,18,-3.70
2018,10,19,03,19,-3.70
2018,10,19,03,20,-3.70
2018,10,19,03,21,-3.60
2018,10,19,03,22,-3.60
2018,10,19,03,23,-3.60
2018,10,19,03,24,-3.60
2018,10,19,03,25,-3.60
2018,10,19,03,26,-3.60
2018,10,19,03,27,-3.60
2018,10,19,03,28,-3.50
2018,10,19,03,29,-3.50
2018,10,19,03,30,-3.50
2018,10,19,03,31,-3.50
2018,10,19,03,32,-3.50
2018,10,19,03,33,-3.40
2018,10,19,03,34,-3.40
2018,10,19,03,35,-3.40
2018,10,19,03,36,-3.40
2018,10,19,03,37,-3.40
2018,10,19,03,38,-3.40
2018,10,19,03,39,-3.40
2018,10,19,03,40,-3.40
2018,10,19,03,41,-3.40
2018,10,19,03,42,-3.40
2018,10,19,03,43,-3.40
2018,10,19,03,44,-3.40
2018,10,19,03,45,-3.40
2018,10,19,03,46,-3.40
2018,10,19,03,47,-3.40
2018,10,19,03,48,-3.40
2018,10,19,03,49,-3.40
2018,10,19,03,50,-3.30
2018,10,19,03,51,-3.40
2018,10,19,03,52,-3.30
2018,10,19,03,53,-3.40
2018,10,19,03,54,-3.40
2018,10,19,03,55,-3.40
2018,10,19,03,56,-3.40
2018,10,19,03,57,-3.40
2018,10,19,03,58,-3.40
2018,10,19,03,59,-3.40
2018,10,19,04,00,-3.30
2018,10,19,04,01,-3.30
2018,10,19,04,02,-3.30
2018,10,19,04,03,-3.30
2018,10,19,04,04,-3.30
2018,10,19,04,05,-3.30
2018,10,19,04,06,-3.30
2018,10,19,04,07,-3.30
2018,10,19,04,08,-3.30
2018,10,19,04,09,-3.30
2018,10,19,04,10,-3.30
2018,10,19,04,11,-3.30
2018,10,19,04,12,-3.30
2018,10,19,04,13,-3.30
2018,10,19,04,14,-3.30
2018,10,19,04,15,-3.30
2018,10,19,04,16,-3.30
2018,10,19,04,17,-3.30
2018,10,19,04,18,-3.30
2018,10,19,04,19,-3.30
2018,10,19,04,20,-3.30
2018,10,19,04,21,-3.30
2018,10,19,04,22,-3.30
2018,10,19,04,23,-3.30
2018,10,19,04,24,-3.30
2018,10,19,04,25,-3.30
2018,10,19,04,26,-3.30
2018,10,19,04,27,-3.30
2018,10,19,04,28,-3.30
2018,10,19,04,29,-3.30
2018,10,19,04,30,-3.30
2018,10,19,04,31,-3.30
2018,10,19,04,32,-3.30
2018,10,19,04,33,-3.30
2018,10,19,04,34,-3.30
2018,10,19,04,35,-3.30
2018,10,19,04,36,-3.30
2018,10,19,04,37,-3.30
2018,10,19,04,38,-3.30
2018,10,19,04,39,-3.30
2018,10,19,04,40,-3.30
2018,10,19,04,41,-3.30
2018,10,19,04,42,-3.30
2018,10,19,04,43,-3.30
2018,10,19,04,44,-3.30
2018,10,19,04,45,-3.30
2018,10,19,04,46,-3.30
2018,10,19,04,47,-3.30
2018,10,19,04,48,-3.30
2018,10,19,04,49,-3.30
2018,10,19,04,50,-3.30
2018,10,19,04,51,-3.30
2018,10,19,04,52,-3.30
2018,10,19,04,53,-3.30
2018,10,19,04,54,-3.30
2018,10,19,04,55,-3.30
2018,10,19,04,56,-3.30
2018,10,19,04,57,-3.30
2018,10,19,04,58,-3.30
2018,10,19,04,59,-3.30
2018,10,19,05,00,-3.30
2018,10,19,05,01,-3.30
2018,10,19,05,02,-3.30
2018,10,19,05,03,-3.30
2018,10,19,05,04,-3.30
2018,10,19,05,05,-3.20
2018,10,19,05,06,-3.20
2018,10,19,05,07,-3.20
2018,10,19,05,08,-3.20
2018,10,19,05,09,-3.20
2018,10,19,05,10,-3.20
2018,10,19,05,11,-3.20
2018,10,19,05,12,-3.20
2018,10,19,05,13,-3.20
2018,10,19,05,14,-3.20
2018,10,19,05,15,-3.20
2018,10,19,05,16,-3.20
2018,10,19,05,17,-3.20
2018,10,19,05,18,-3.20
2018,10,19,05,19,-3.20
2018,10,19,05,20,-3.20
2018,10,19,05,21,-3.20
2018,10,19,05,22,-3.20
2018,10,19,05,23,-3.20
2018,10,19,05,24,-3.20
2018,10,19,05,25,-3.20
2018,10,19,05,26,-3.20
2018,10,19,05,27,-3.20
2018,10,19,05,28,-3.20
2018,10,19,05,29,-3.20
2018,10,19,05,30,-3.20
2018,10,19,05,31,-3.20
2018,10,19,05,32,-3.20
2018,10,19,05,33,-3.20
2018,10,19,05,34,-3.20
2018,10,19,05,35,-3.20
2018,10,19,05,36,-3.20
2018,10,19,05,37,-3.20
2018,10,19,05,38,-3.20
2018,10,19,05,39,-3.20
2018,10,19,05,40,-3.20
2018,10,19,05,41,-3.20
2018,10,19,05,42,-3.20
2018,10,19,05,43,-3.20
2018,10,19,05,44,-3.20
2018,10,19,05,45,-3.20
2018,10,19,05,46,-3.20
2018,10,19,05,47,-3.20
2018,10,19,05,48,-3.10
2018,10,19,05,49,-3.10
2018,10,19,05,50,-3.10
2018,10,19,05,51,-3.10
2018,10,19,05,52,-3.10
2018,10,19,05,53,-3.10
2018,10,19,05,54,-3.10
2018,10,19,05,55,-3.10
2018,10,19,05,56,-3.10
2018,10,19,05,57,-3.10
2018,10,19,05,58,-3.10
2018,10,19,05,59,-3.10
2018,10,19,06,00,-3.10
2018,10,19,06,01,-3.10
2018,10,19,06,02,-3.10
2018,10,19,06,03,-3.10
2018,10,19,06,04,-3.10
2018,10,19,06,05,-3.10
2018,10,19,06,06,-3.10
2018,10,19,06,07,-3.10
2018,10,19,06,08,-3.10
2018,10,19,06,09,-3.10
2018,10,19,06,10,-3.10
2018,10,19,06,11,-3.10
2018,10,19,06,12,-3.00
2018,10,19,06,13,-3.10
2018,10,19,06,14,-3.10
2018,10,19,06,15,-3.10
2018,10,19,06,16,-3.00
2018,10,19,06,17,-3.00
2018,10,19,06,18,-3.00
2018,10,19,06,19,-3.00
2018,10,19,06,20,-3.00
2018,10,19,06,21,-3.00
2018,10,19,06,22,-3.00
2018,10,19,06,23,-3.00
2018,10,19,06,24,-3.00
2018,10,19,06,25,-3.00
2018,10,19,06,26,-3.00
2018,10,19,06,27,-3.00
2018,10,19,06,28,-3.00
2018,10,19,06,29,-2.90
2018,10,19,06,30,-2.90
2018,10,19,06,31,-2.90
2018,10,19,06,32,-2.90
2018,10,19,06,33,-2.90
2018,10,19,06,34,-2.90
2018,10,19,06,35,-2.90
2018,10,19,06,36,-2.90
2018,10,19,06,37,-2.90
2018,10,19,06,38,-2.90
2018,10,19,06,39,-2.90
2018,10,19,06,40,-2.90
2018,10,19,06,41,-2.80
2018,10,19,06,42,-2.80
2018,10,19,06,43,-2.80
2018,10,19,06,44,-2.80
2018,10,19,06,45,-2.80
2018,10,19,06,46,-2.80
2018,10,19,06,47,-2.80
2018,10,19,06,48,-2.80
2018,10,19,06,49,-2.80
2018,10,19,06,50,-2.80
2018,10,19,06,51,-2.80
2018,10,19,06,52,-2.80
2018,10,19,06,53,-2.80
2018,10,19,06,54,-2.80
2018,10,19,06,55,-2.80
2018,10,19,06,56,-2.80
2018,10,19,06,57,-2.80
2018,10,19,06,58,-2.80
2018,10,19,06,59,-2.80
2018,10,19,07,00,-2.80
2018,10,19,07,01,-2.80
2018,10,19,07,02,-2.80
2018,10,19,07,03,-2.80
2018,10,19,07,04,-2.80
2018,10,19,07,05,-2.80
2018,10,19,07,06,-2.80
2018,10,19,07,07,-2.80
2018,10,19,07,08,-2.80
2018,10,19,07,09,-2.70
2018,10,19,07,10,-2.80
2018,10,19,07,11,-2.70
2018,10,19,07,12,-2.80
2018,10,19,07,13,-2.80
2018,10,19,07,14,-2.80
2018,10,19,07,15,-2.70
2018,10,19,07,16,-2.70
2018,10,19,07,17,-2.70
2018,10,19,07,18,-2.70
2018,10,19,07,19,-2.70
2018,10,19,07,20,-2.70
2018,10,19,07,21,-2.70
2018,10,19,07,22,-2.70
2018,10,19,07,23,-2.70
2018,10,19,07,24,-2.70
2018,10,19,07,25,-2.70
2018,10,19,07,26,-2.70
2018,10,19,07,27,-2.70
2018,10,19,07,28,-2.70
2018,10,19,07,29,-2.70
2018,10,19,07,30,-2.70
2018,10,19,07,31,-2.70
2018,10,19,07,32,-2.70
2018,10,19,07,33,-2.70
2018,10,19,07,34,-2.70
2018,10,19,07,35,-2.70
2018,10,19,07,36,-2.70
2018,10,19,07,37,-2.70
2018,10,19,07,38,-2.70
2018,10,19,07,39,-2.70
2018,10,19,07,40,-2.60
2018,10,19,07,41,-2.60
2018,10,19,07,42,-2.60
2018,10,19,07,43,-2.60
2018,10,19,07,44,-2.60
2018,10,19,07,45,-2.60
2018,10,19,07,46,-2.60
2018,10,19,07,47,-2.60
2018,10,19,07,48,-2.60
2018,10,19,07,49,-2.60
2018,10,19,07,50,-2.60
2018,10,19,07,51,-2.60
2018,10,19,07,52,-2.60
2018,10,19,07,53,-2.60
2018,10,19,07,54,-2.60
2018,10,19,07,55,-2.60
2018,10,19,07,56,-2.60
2018,10,19,07,57,-2.60
2018,10,19,07,58,-2.60
2018,10,19,07,59,-2.50
2018,10,19,08,00,-2.50
2018,10,19,08,01,-2.50
2018,10,19,08,02,-2.50
2018,10,19,08,03,-2.50
2018,10,19,08,04,-2.50
2018,10,19,08,05,-2.50
2018,10,19,08,06,-2.50
2018,10,19,08,07,-2.50
2018,10,19,08,08,-2.50
2018,10,19,08,09,-2.50
2018,10,19,08,10,-2.50
2018,10,19,08,11,-2.50
2018,10,19,08,12,-2.40
2018,10,19,08,13,-2.40
2018,10,19,08,14,-2.40
2018,10,19,08,15,-2.40
2018,10,19,08,16,-2.40
2018,10,19,08,17,-2.40
2018,10,19,08,18,-2.40
2018,10,19,08,19,-2.40
2018,10,19,08,20,-2.40
2018,10,19,08,21,-2.40
2018,10,19,08,22,-2.40
2018,10,19,08,23,-2.40
2018,10,19,08,24,-2.40
2018,10,19,08,25,-2.40
2018,10,19,08,26,-2.40
2018,10,19,08,27,-2.40
2018,10,19,08,28,-2.40
2018,10,19,08,29,-2.40
2018,10,19,08,30,-2.40
2018,10,19,08,31,-2.30
2018,10,19,08,32,-2.30
2018,10,19,08,33,-2.30
2018,10,19,08,34,-2.30
2018,10,19,08,35,-2.30
2018,10,19,08,36,-2.30
2018,10,19,08,37,-2.30
2018,10,19,08,38,-2.30
2018,10,19,08,39,-2.20
2018,10,19,08,40,-2.20
2018,10,19,08,41,-2.20
2018,10,19,08,42,-2.20
2018,10,19,08,43,-2.20
2018,10,19,08,44,-2.20
2018,10,19,08,45,-2.20
2018,10,19,08,46,-2.20
2018,10,19,08,47,-2.20
2018,10,19,08,48,-2.20
2018,10,19,08,49,-2.20
2018,10,19,08,50,-2.10
2018,10,19,08,51,-2.10
2018,10,19,08,52,-2.10
2018,10,19,08,53,-2.10
2018,10,19,08,54,-2.10
2018,10,19,08,55,-2.10
2018,10,19,08,56,-2.10
2018,10,19,08,57,-2.10
2018,10,19,08,58,-2.10
2018,10,19,08,59,-2.00
2018,10,19,09,00,-2.00
2018,10,19,09,01,-2.00
2018,10,19,09,02,-2.00
2018,10,19,09,03,-2.00
2018,10,19,09,04,-2.00
2018,10,19,09,05,-2.00
2018,10,19,09,06,-2.00
2018,10,19,09,07,-2.00
2018,10,19,09,08,-2.00
2018,10,19,09,09,-2.00
2018,10,19,09,10,-2.00
2018,10,19,09,11,-2.00
2018,10,19,09,12,-2.00
2018,10,19,09,13,-2.00
2018,10,19,09,14,-2.00
2018,10,19,09,15,-2.00
2018,10,19,09,16,-1.90
2018,10,19,09,17,-1.90
2018,10,19,09,18,-1.90
2018,10,19,09,19,-1.90
2018,10,19,09,20,-1.90
2018,10,19,09,21,-1.90
2018,10,19,09,22,-1.90
2018,10,19,09,23,-1.90
2018,10,19,09,24,-1.90
2018,10,19,09,25,-1.90
2018,10,19,09,26,-1.90
2018,10,19,09,27,-1.90
2018,10,19,09,28,-1.90
2018,10,19,09,29,-1.90
2018,10,19,09,30,-1.90
2018,10,19,09,31,-1.90
2018,10,19,09,32,-1.90
2018,10,19,09,33,-1.90
2018,10,19,09,34,-1.90
2018,10,19,09,35,-1.80
2018,10,19,09,36,-1.80
2018,10,19,09,37,-1.80
2018,10,19,09,38,-1.80
2018,10,19,09,39,-1.80
2018,10,19,09,40,-1.80
2018,10,19,09,41,-1.80
2018,10,19,09,42,-1.80
2018,10,19,09,43,-1.70
2018,10,19,09,44,-1.70
2018,10,19,09,45,-1.70
2018,10,19,09,46,-1.70
2018,10,19,09,47,-1.70
2018,10,19,09,48,-1.70
2018,10,19,09,49,-1.70
2018,10,19,09,50,-1.60
2018,10,19,09,51,-1.60
2018,10,19,09,52,-1.60
2018,10,19,09,53,-1.60
2018,10,19,09,54,-1.60
2018,10,19,09,55,-1.60
2018,10,19,09,56,-1.50
2018,10,19,09,57,-1.50
2018,10,19,09,58,-1.50
2018,10,19,09,59,-1.50
2018,10,19,10,00,-1.50
2018,10,19,10,01,-1.50
2018,10,19,10,02,-1.40
2018,10,19,10,03,-1.40
2018,10,19,10,04,-1.40
2018,10,19,10,05,-1.40
2018,10,19,10,06,-1.30
2018,10,19,10,07,-1.30
2018,10,19,10,08,-1.30
2018,10,19,10,09,-1.30
2018,10,19,10,10,-1.30
2018,10,19,10,11,-1.30
2018,10,19,10,12,-1.30
2018,10,19,10,13,-1.30
2018,10,19,10,14,-1.20
2018,10,19,10,15,-1.20
2018,10,19,10,16,-1.20
2018,10,19,10,17,-1.20
2018,10,19,10,18,-1.20
2018,10,19,10,19,-1.10
2018,10,19,10,20,-1.10
2018,10,19,10,21,-1.00
2018,10,19,10,22,-1.00
2018,10,19,10,23,-0.90
2018,10,19,10,24,-0.90
2018,10,19,10,25,-0.90
2018,10,19,10,26,-0.80
2018,10,19,10,27,-0.80
2018,10,19,10,28,-0.80
2018,10,19,10,29,-0.80
2018,10,19,10,30,-0.70
2018,10,19,10,31,-0.70
2018,10,19,10,32,-0.70
2018,10,19,10,33,-0.70
2018,10,19,10,34,-0.70
2018,10,19,10,35,-0.60
2018,10,19,10,36,-0.60
2018,10,19,10,37,-0.60
2018,10,19,10,38,-0.60
2018,10,19,10,39,-0.50
2018,10,19,10,40,-0.50
2018,10,19,10,41,-0.50
2018,10,19,10,42,-0.50
2018,10,19,10,43,-0.40
2018,10,19,10,44,-0.40
2018,10,19,10,45,-0.40
2018,10,19,10,46,-0.30
2018,10,19,10,47,-0.30
2018,10,19,10,48,-0.30
2018,10,19,10,49,-0.30
2018,10,19,10,50,-0.30
2018,10,19,10,51,-0.20
2018,10,19,10,52,-0.20
2018,10,19,10,53,-0.20
2018,10,19,10,54,-0.20
2018,10,19,10,55,-0.20
2018,10,19,10,56,-0.20
2018,10,19,10,57,-0.10
2018,10,19,10,58,-0.10
2018,10,19,10,59,-0.10
2018,10,19,11,00,0.00
2018,10,19,11,01,0.00
2018,10,19,11,02,0.10
2018,10,19,11,03,0.10
2018,10,19,11,04,0.10
2018,10,19,11,05,0.20
2018,10,19,11,06,0.20
2018,10,19,11,07,0.20
2018,10,19,11,08,0.30
2018,10,19,11,09,0.30
2018,10,19,11,10,0.30
2018,10,19,11,11,0.30
2018,10,19,11,12,0.40
2018,10,19,11,13,0.40
2018,10,19,11,14,0.50
2018,10,19,11,15,0.50
2018,10,19,11,16,0.60
2018,10,19,11,17,0.60
2018,10,19,11,18,0.70
2018,10,19,11,19,0.70
2018,10,19,11,20,0.70
2018,10,19,11,21,0.70
2018,10,19,11,22,0.70
2018,10,19,11,23,0.70
2018,10,19,11,24,0.70
2018,10,19,11,25,0.70
2018,10,19,11,26,0.80
2018,10,19,11,27,0.80
2018,10,19,11,28,0.80
2018,10,19,11,29,0.80
2018,10,19,11,30,0.90
2018,10,19,11,31,0.90
2018,10,19,11,32,1.00
2018,10,19,11,33,1.00
2018,10,19,11,34,1.00
2018,10,19,11,35,1.00
2018,10,19,11,36,1.00
2018,10,19,11,37,1.00
2018,10,19,11,38,1.00
2018,10,19,11,39,1.00
2018,10,19,11,40,1.00
2018,10,19,11,41,1.00
2018,10,19,11,42,1.10
2018,10,19,11,43,1.10
2018,10,19,11,44,1.10
2018,10,19,11,45,1.20
2018,10,19,11,46,1.20
2018,10,19,11,47,1.20
2018,10,19,11,48,1.30
2018,10,19,11,49,1.30
2018,10,19,11,50,1.30
2018,10,19,11,51,1.30
2018,10,19,11,52,1.40
2018,10,19,11,53,1.40
2018,10,19,11,54,1.40
2018,10,19,11,55,1.40
2018,10,19,11,56,1.40
2018,10,19,11,57,1.40
2018,10,19,11,58,1.50
2018,10,19,11,59,1.50
2018,10,19,12,00,1.50
2018,10,19,12,01,1.50
2018,10,19,12,02,1.60
2018,10,19,12,03,1.60
2018,10,19,12,04,1.60
2018,10,19,12,05,1.60
2018,10,19,12,06,1.60
2018,10,19,12,07,1.60
2018,10,19,12,08,1.60
2018,10,19,12,09,1.60
2018,10,19,12,10,1.60
2018,10,19,12,11,1.60
2018,10,19,12,12,1.60
2018,10,19,12,13,1.70
2018,10,19,12,14,1.70
2018,10,19,12,15,1.70
2018,10,19,12,16,1.70
2018,10,19,12,17,1.60
2018,10,19,12,18,1.60
2018,10,19,12,19,1.60
2018,10,19,12,20,1.60
2018,10,19,12,21,1.70
2018,10,19,12,22,1.70
2018,10,19,12,23,1.60
2018,10,19,12,24,1.60
2018,10,19,12,25,1.60
2018,10,19,12,26,1.60
2018,10,19,12,27,1.60
2018,10,19,12,28,1.60
2018,10,19,12,29,1.70
2018,10,19,12,30,1.70
2018,10,19,12,31,1.70
2018,10,19,12,32,1.70
2018,10,19,12,33,1.60
2018,10,19,12,34,1.60
2018,10,19,12,35,1.60
2018,10,19,12,36,1.60
2018,10,19,12,37,1.60
2018,10,19,12,38,1.60
2018,10,19,12,39,1.60
2018,10,19,12,40,1.60
2018,10,19,12,41,1.60
2018,10,19,12,42,1.60
2018,10,19,12,43,1.60
2018,10,19,12,44,1.60
2018,10,19,12,45,1.60
2018,10,19,12,46,1.60
2018,10,19,12,47,1.60
2018,10,19,12,48,1.60
2018,10,19,12,49,1.60
2018,10,19,12,50,1.70
2018,10,19,12,51,1.70
2018,10,19,12,52,1.70
2018,10,19,12,53,1.70
2018,10,19,12,54,1.70
2018,10,19,12,55,1.70
2018,10,19,12,56,1.70
2018,10,19,12,57,1.80
2018,10,19,12,58,1.80
2018,10,19,12,59,1.90
2018,10,19,13,00,1.90
2018,10,19,13,01,1.90
2018,10,19,13,02,1.90
2018,10,19,13,03,1.90
2018,10,19,13,04,1.90
2018,10,19,13,05,2.00
2018,10,19,13,06,2.00
2018,10,19,13,07,2.00
2018,10,19,13,08,2.10
2018,10,19,13,09,2.10
2018,10,19,13,10,2.10
2018,10,19,13,11,2.10
2018,10,19,13,12,2.20
2018,10,19,13,13,2.20
2018,10,19,13,14,2.20
2018,10,19,13,15,2.20
2018,10,19,13,16,2.30
2018,10,19,13,17,2.40
2018,10,19,13,18,2.50
2018,10,19,13,19,2.60
2018,10,19,13,20,2.70
2018,10,19,13,21,2.70
2018,10,19,13,22,2.70
2018,10,19,13,23,2.70
2018,10,19,13,24,2.70
2018,10,19,13,25,2.80
2018,10,19,13,26,2.80
2018,10,19,13,27,2.80
2018,10,19,13,28,2.80
2018,10,19,13,29,2.90
2018,10,19,13,30,2.90
2018,10,19,13,31,3.00
2018,10,19,13,32,3.10
2018,10,19,13,33,3.20
2018,10,19,13,34,3.20
2018,10,19,13,35,3.30
2018,10,19,13,36,3.30
2018,10,19,13,37,3.40
2018,10,19,13,38,3.40
2018,10,19,13,39,3.40
2018,10,19,13,40,3.40
2018,10,19,13,41,3.50
2018,10,19,13,42,3.50
2018,10,19,13,43,3.50
2018,10,19,13,44,3.50
2018,10,19,13,45,3.50
2018,10,19,13,46,3.50
2018,10,19,13,47,3.50
2018,10,19,13,48,3.50
2018,10,19,13,49,3.50
2018,10,19,13,50,3.50
2018,10,19,13,51,3.50
2018,10,19,13,52,3.50
2018,10,19,13,53,3.60
2018,10,19,13,54,3.60
2018,10,19,13,55,3.60
2018,10,19,13,56,3.60
2018,10,19,13,57,3.70
2018,10,19,13,58,3.70
2018,10,19,13,59,3.70
2018,10,19,14,00,3.70
2018,10,19,14,01,3.70
2018,10,19,14,02,3.80
2018,10,19,14,03,3.80
2018,10,19,14,04,3.80
2018,10,19,14,05,3.80
2018,10,19,14,06,3.80
2018,10,19,14,07,3.80
2018,10,19,14,08,3.80
2018,10,19,14,09,3.80
2018,10,19,14,10,3.80
2018,10,19,14,11,3.80
2018,10,19,14,12,3.80
2018,10,19,14,13,3.80
2018,10,19,14,14,3.80
2018,10,19,14,15,3.80
2018,10,19,14,16,3.80
2018,10,19,14,17,3.80
2018,10,19,14,18,3.80
2018,10,19,14,19,3.80
2018,10,19,14,20,3.80
2018,10,19,14,21,3.80
2018,10,19,14,22,3.90
2018,10,19,14,23,3.90
2018,10,19,14,24,3.90
2018,10,19,14,25,3.90
2018,10,19,14,26,3.90
2018,10,19,14,27,3.90
2018,10,19,14,28,3.80
2018,10,19,14,29,3.80
2018,10,19,14,30,3.80
2018,10,19,14,31,3.80
2018,10,19,14,32,3.80
2018,10,19,14,33,3.70
2018,10,19,14,34,3.70
2018,10,19,14,35,3.70
2018,10,19,14,36,3.70
2018,10,19,14,37,3.70
2018,10,19,14,38,3.60
2018,10,19,14,39,3.60
2018,10,19,14,40,3.60
2018,10,19,14,41,3.60
2018,10,19,14,42,3.50
2018,10,19,14,43,3.60
2018,10,19,14,44,3.60
2018,10,19,14,45,3.60
2018,10,19,14,46,3.70
2018,10,19,14,47,3.70
2018,10,19,14,48,3.70
2018,10,19,14,49,3.80
2018,10,19,14,50,3.70
2018,10,19,14,51,3.70
2018,10,19,14,52,3.70
2018,10,19,14,53,3.70
2018,10,19,14,54,3.60
2018,10,19,14,55,3.60
2018,10,19,14,56,3.60
2018,10,19,14,57,3.50
2018,10,19,14,58,3.50
2018,10,19,14,59,3.40
2018,10,19,15,00,3.40
2018,10,19,15,01,3.40
2018,10,19,15,02,3.40
2018,10,19,15,03,3.40
2018,10,19,15,04,3.30
2018,10,19,15,05,3.30
2018,10,19,15,06,3.20
2018,10,19,15,07,3.20
2018,10,19,15,08,3.20
2018,10,19,15,09,3.30
2018,10,19,15,10,3.30
2018,10,19,15,11,3.30
2018,10,19,15,12,3.40
2018,10,19,15,13,3.40
2018,10,19,15,14,3.50
2018,10,19,15,15,3.60
2018,10,19,15,16,3.60
2018,10,19,15,17,3.70
2018,10,19,15,18,3.70
2018,10,19,15,19,3.70
2018,10,19,15,20,3.80
2018,10,19,15,21,3.80
2018,10,19,15,22,3.90
2018,10,19,15,23,3.90
2018,10,19,15,24,3.90
2018,10,19,15,25,3.90
2018,10,19,15,26,4.00
2018,10,19,15,27,4.10
2018,10,19,15,28,4.10
2018,10,19,15,29,4.10
2018,10,19,15,30,4.20
2018,10,19,15,31,4.20
2018,10,19,15,32,4.20
2018,10,19,15,33,4.30
2018,10,19,15,34,4.30
2018,10,19,15,35,4.40
2018,10,19,15,36,4.40
2018,10,19,15,37,4.50
2018,10,19,15,38,4.60
2018,10,19,15,39,4.60
2018,10,19,15,40,4.70
2018,10,19,15,41,4.80
2018,10,19,15,42,4.80
2018,10,19,15,43,4.80
2018,10,19,15,44,4.80
2018,10,19,15,45,4.80
2018,10,19,15,46,4.80
2018,10,19,15,47,4.80
2018,10,19,15,48,4.80
2018,10,19,15,49,4.90
2018,10,19,15,50,4.90
2018,10,19,15,51,5.00
2018,10,19,15,52,5.10
2018,10,19,15,53,5.10
2018,10,19,15,54,5.20
2018,10,19,15,55,5.20
2018,10,19,15,56,5.30
2018,10,19,15,57,5.30
2018,10,19,15,58,5.30
2018,10,19,15,59,5.40
2018,10,19,16,00,5.40
2018,10,19,16,01,5.40
2018,10,19,16,02,5.50
2018,10,19,16,03,5.60
2018,10,19,16,04,5.70
2018,10,19,16,05,5.70
2018,10,19,16,06,5.80
2018,10,19,16,07,5.80
2018,10,19,16,08,5.80
2018,10,19,16,09,5.80
2018,10,19,16,10,5.90
2018,10,19,16,11,5.90
2018,10,19,16,12,5.90
2018,10,19,16,13,5.90
2018,10,19,16,14,5.90
2018,10,19,16,15,5.90
2018,10,19,16,16,5.90
2018,10,19,16,17,5.90
2018,10,19,16,18,5.90
2018,10,19,16,19,5.90
2018,10,19,16,20,5.90
2018,10,19,16,21,6.00
2018,10,19,16,22,6.00
2018,10,19,16,23,6.00
2018,10,19,16,24,6.10
2018,10,19,16,25,6.10
2018,10,19,16,26,6.10
2018,10,19,16,27,6.10
2018,10,19,16,28,6.10
2018,10,19,16,29,6.10
2018,10,19,16,30,6.20
2018,10,19,16,31,6.20
2018,10,19,16,32,6.20
2018,10,19,16,33,6.20
2018,10,19,16,34,6.20
2018,10,19,16,35,6.20
2018,10,19,16,36,6.20
2018,10,19,16,37,6.30
2018,10,19,16,38,6.30
2018,10,19,16,39,6.30
2018,10,19,16,40,6.30
2018,10,19,16,41,6.30
2018,10,19,16,42,6.30
2018,10,19,16,43,6.30
2018,10,19,16,44,6.30
2018,10,19,16,45,6.30
2018,10,19,16,46,6.30
2018,10,19,16,47,6.30
2018,10,19,16,48,6.30
2018,10,19,16,49,6.30
2018,10,19,16,50,6.30
2018,10,19,16,51,6.30
2018,10,19,16,52,6.40
2018,10,19,16,53,6.40
2018,10,19,16,54,6.40
2018,10,19,16,55,6.40
2018,10,19,16,56,6.40
2018,10,19,16,57,6.40
2018,10,19,16,58,6.40
2018,10,19,16,59,6.40
2018,10,19,17,00,6.40
2018,10,19,17,01,6.40
2018,10,19,17,02,6.40
2018,10,19,17,03,6.40
2018,10,19,17,04,6.40
2018,10,19,17,05,6.40
2018,10,19,17,06,6.40
2018,10,19,17,07,6.40
2018,10,19,17,08,6.40
2018,10,19,17,09,6.40
2018,10,19,17,10,6.40
2018,10,19,17,11,6.40
2018,10,19,17,12,6.40
2018,10,19,17,13,6.40
2018,10,19,17,14,6.40
2018,10,19,17,15,6.30
2018,10,19,17,16,6.30
2018,10,19,17,17,6.30
2018,10,19,17,18,6.30
2018,10,19,17,19,6.30
2018,10,19,17,20,6.30
2018,10,19,17,21,6.30
2018,10,19,17,22,6.30
2018,10,19,17,23,6.20
2018,10,19,17,24,6.20
2018,10,19,17,25,6.20
2018,10,19,17,26,6.20
2018,10,19,17,27,6.20
2018,10,19,17,28,6.10
2018,10,19,17,29,6.10
2018,10,19,17,30,6.10
2018,10,19,17,31,6.00
2018,10,19,17,32,6.00
2018,10,19,17,33,6.00
2018,10,19,17,34,5.90
2018,10,19,17,35,5.90
2018,10,19,17,36,5.90